TimeEDT,TemperatureF,Dew PointF,Humidity,Sea Level PressureIn,VisibilityMPH,Wind Direction,Wind SpeedMPH,Gust SpeedMPH,PrecipitationIn,Events,Conditions,WindDirDegrees,DateUTC
12:58 AM,75.2,75.2,100,30.10,10.0,Calm,Calm,-,N/A,,Clear,0,2013-08-10 04:58:00
1:58 AM,75.2,75.2,100,30.11,10.0,Calm,Calm,-,N/A,,Clear,0,2013-08-10 05:58:00
2:58 AM,74.7,74.7,100,30.10,10.0,Calm,Calm,-,N/A,,Clear,0,2013-08-10 06:58:00
3:58 AM,74.1,74.1,100,30.10,10.0,Calm,Calm,-,N/A,,Clear,0,2013-08-10 07:58:00
4:58 AM,74.3,74.3,100,30.09,10.0,SW,1.2,-,N/A,,Clear,230,2013-08-10 08:58:00
5:58 AM,73.0,73.0,100,30.10,10.0,Calm,Calm,-,N/A,,Clear,0,2013-08-10 09:58:00
6:58 AM,72.5,72.5,100,30.12,10.0,Calm,Calm,-,N/A,,Clear,0,2013-08-10 10:58:00
7:58 AM,74.7,74.7,100,30.13,10.0,Calm,Calm,-,N/A,,Clear,0,2013-08-10 11:58:00
8:58 AM,79.7,79.7,100,30.14,10.0,Calm,Calm,-,N/A,,Clear,0,2013-08-10 12:58:00
9:58 AM,83.7,80.1,89,30.14,10.0,South,5.8,-,N/A,,Clear,190,2013-08-10 13:58:00
10:23 AM,84.2,78.8,84,30.13,10.0,Variable,4.6,-,N/A,,Mostly Cloudy,0,2013-08-10 14:23:00
10:28 AM,84.2,78.8,84,30.14,10.0,South,4.6,-,N/A,,Mostly Cloudy,190,2013-08-10 14:28:00
10:38 AM,84.2,78.8,84,30.14,10.0,Variable,3.5,-,N/A,,Scattered Clouds,0,2013-08-10 14:38:00
10:43 AM,86.0,78.8,79,30.14,10.0,South,5.8,-,N/A,,Mostly Cloudy,180,2013-08-10 14:43:00
10:48 AM,86.0,78.8,79,30.14,10.0,Variable,1.2,-,N/A,,Scattered Clouds,0,2013-08-10 14:48:00
10:58 AM,85.8,78.3,78,30.15,10.0,SSW,5.8,-,N/A,,Partly Cloudy,200,2013-08-10 14:58:00
11:58 AM,88.2,78.1,72,30.15,10.0,South,3.5,-,N/A,,Scattered Clouds,180,2013-08-10 15:58:00
12:58 PM,88.2,77.2,70,30.15,10.0,Calm,Calm,-,N/A,,Mostly Cloudy,0,2013-08-10 16:58:00
1:58 PM,90.1,77.0,65,30.13,10.0,Variable,2.3,-,N/A,,Scattered Clouds,0,2013-08-10 17:58:00
2:58 PM,90.7,77.2,64,30.11,10.0,SSW,4.6,-,N/A,,Scattered Clouds,200,2013-08-10 18:58:00
3:58 PM,91.0,76.8,63,30.09,10.0,Variable,3.5,-,N/A,,Scattered Clouds,0,2013-08-10 19:58:00
4:58 PM,90.9,76.3,62,30.09,10.0,SSE,6.9,-,N/A,,Scattered Clouds,150,2013-08-10 20:58:00
5:58 PM,91.6,77.4,63,30.08,10.0,SE,10.4,-,N/A,,Partly Cloudy,140,2013-08-10 21:58:00
6:58 PM,87.6,77.2,71,30.08,10.0,SE,5.8,-,N/A,,Clear,130,2013-08-10 22:58:00
7:58 PM,85.6,77.2,76,30.10,10.0,SSE,4.6,-,N/A,,Clear,150,2013-08-10 23:58:00
8:58 PM,82.4,77.7,86,30.10,10.0,SSE,4.6,-,N/A,,Clear,150,2013-08-11 00:58:00
9:58 PM,80.4,77.9,92,30.13,10.0,SSE,3.5,-,N/A,,Clear,150,2013-08-11 01:58:00
10:58 PM,79.5,78.3,96,30.14,10.0,South,2.3,-,N/A,,Clear,170,2013-08-11 02:58:00
11:58 PM,78.3,78.1,99,30.14,10.0,South,1.2,-,N/A,,Clear,180,2013-08-11 03:58:00